Year,Month,Day,Hour,Minute,Value (Times are PST for temperature in C)
2015,08,09,00,00,15.90
2015,08,09,00,01,15.90
2015,08,09,00,02,15.90
2015,08,09,00,03,15.90
2015,08,09,00,04,15.80
2015,08,09,00,05,15.80
2015,08,09,00,06,15.80
2015,08,09,00,07,15.80
2015,08,09,00,08,15.80
2015,08,09,00,09,15.70
2015,08,09,00,10,15.70
2015,08,09,00,11,15.70
2015,08,09,00,12,15.70
2015,08,09,00,13,15.70
2015,08,09,00,14,15.60
2015,08,09,00,15,15.60
2015,08,09,00,16,15.60
2015,08,09,00,17,15.50
2015,08,09,00,18,15.50
2015,08,09,00,19,15.50
2015,08,09,00,20,15.50
2015,08,09,00,21,15.40
2015,08,09,00,22,15.40
2015,08,09,00,23,15.40
2015,08,09,00,24,15.40
2015,08,09,00,25,15.40
2015,08,09,00,26,15.30
2015,08,09,00,27,15.30
2015,08,09,00,28,15.30
2015,08,09,00,29,15.30
2015,08,09,00,30,15.30
2015,08,09,00,31,15.20
2015,08,09,00,32,15.20
2015,08,09,00,33,15.20
2015,08,09,00,34,15.20
2015,08,09,00,35,15.20
2015,08,09,00,36,15.20
2015,08,09,00,37,15.10
2015,08,09,00,38,15.10
2015,08,09,00,39,15.10
2015,08,09,00,40,15.10
2015,08,09,00,41,15.10
2015,08,09,00,42,15.10
2015,08,09,00,43,15.10
2015,08,09,00,44,15.10
2015,08,09,00,45,15.20
2015,08,09,00,46,15.30
2015,08,09,00,47,15.30
2015,08,09,00,48,15.40
2015,08,09,00,49,15.40
2015,08,09,00,50,15.50
2015,08,09,00,51,15.60
2015,08,09,00,52,15.70
2015,08,09,00,53,15.70
2015,08,09,00,54,15.80
2015,08,09,00,55,15.80
2015,08,09,00,56,15.80
2015,08,09,00,57,15.90
2015,08,09,00,58,16.10
2015,08,09,00,59,16.20
2015,08,09,01,00,16.20
2015,08,09,01,01,16.30
2015,08,09,01,02,16.50
2015,08,09,01,03,16.60
2015,08,09,01,04,16.70
2015,08,09,01,05,16.80
2015,08,09,01,06,16.80
2015,08,09,01,07,16.90
2015,08,09,01,08,17.00
2015,08,09,01,09,17.10
2015,08,09,01,10,17.20
2015,08,09,01,11,17.30
2015,08,09,01,12,17.30
2015,08,09,01,13,17.40
2015,08,09,01,14,17.40
2015,08,09,01,15,17.50
2015,08,09,01,16,17.50
2015,08,09,01,17,17.60
2015,08,09,01,18,17.60
2015,08,09,01,19,17.60
2015,08,09,01,20,17.60
2015,08,09,01,21,17.60
2015,08,09,01,22,17.60
2015,08,09,01,23,17.70
2015,08,09,01,24,17.70
2015,08,09,01,25,17.70
2015,08,09,01,26,17.70
2015,08,09,01,27,17.70
2015,08,09,01,28,17.70
2015,08,09,01,29,17.70
2015,08,09,01,30,17.70
2015,08,09,01,31,17.80
2015,08,09,01,32,17.80
2015,08,09,01,33,17.70
2015,08,09,01,34,17.80
2015,08,09,01,35,17.80
2015,08,09,01,36,17.80
2015,08,09,01,37,17.80
2015,08,09,01,38,17.80
2015,08,09,01,39,17.80
2015,08,09,01,40,17.80
2015,08,09,01,41,17.80
2015,08,09,01,42,17.80
2015,08,09,01,43,17.80
2015,08,09,01,44,17.80
2015,08,09,01,45,17.80
2015,08,09,01,46,17.80
2015,08,09,01,47,17.80
2015,08,09,01,48,17.80
2015,08,09,01,49,17.70
2015,08,09,01,50,17.70
2015,08,09,01,51,17.70
2015,08,09,01,52,17.70
2015,08,09,01,53,17.70
2015,08,09,01,54,17.70
2015,08,09,01,55,17.70
2015,08,09,01,56,17.60
2015,08,09,01,57,17.60
2015,08,09,01,58,17.60
2015,08,09,01,59,17.60
2015,08,09,02,00,17.60
2015,08,09,02,01,17.60
2015,08,09,02,02,17.60
2015,08,09,02,03,17.60
2015,08,09,02,04,17.60
2015,08,09,02,05,17.60
2015,08,09,02,06,17.50
2015,08,09,02,07,17.50
2015,08,09,02,08,17.50
2015,08,09,02,09,17.50
2015,08,09,02,10,17.50
2015,08,09,02,11,17.50
2015,08,09,02,12,17.50
2015,08,09,02,13,17.50
2015,08,09,02,14,17.50
2015,08,09,02,15,17.50
2015,08,09,02,16,17.50
2015,08,09,02,17,17.60
2015,08,09,02,18,17.50
2015,08,09,02,19,17.50
2015,08,09,02,20,17.50
2015,08,09,02,21,17.60
2015,08,09,02,22,17.60
2015,08,09,02,23,17.60
2015,08,09,02,24,17.60
2015,08,09,02,25,17.60
2015,08,09,02,26,17.60
2015,08,09,02,27,17.60
2015,08,09,02,28,17.60
2015,08,09,02,29,17.60
2015,08,09,02,30,17.60
2015,08,09,02,31,17.50
2015,08,09,02,32,17.50
2015,08,09,02,33,17.50
2015,08,09,02,34,17.50
2015,08,09,02,35,17.50
2015,08,09,02,36,17.50
2015,08,09,02,37,17.50
2015,08,09,02,38,17.50
2015,08,09,02,39,17.50
2015,08,09,02,40,17.50
2015,08,09,02,41,17.50
2015,08,09,02,42,17.50
2015,08,09,02,43,17.50
2015,08,09,02,44,17.50
2015,08,09,02,45,17.50
2015,08,09,02,46,17.50
2015,08,09,02,47,17.50
2015,08,09,02,48,17.60
2015,08,09,02,49,17.50
2015,08,09,02,50,17.50
2015,08,09,02,51,17.50
2015,08,09,02,52,17.50
2015,08,09,02,53,17.50
2015,08,09,02,54,17.50
2015,08,09,02,55,17.60
2015,08,09,02,56,17.60
2015,08,09,02,57,17.60
2015,08,09,02,58,17.60
2015,08,09,02,59,17.60
2015,08,09,03,00,17.60
2015,08,09,03,01,17.60
2015,08,09,03,02,17.60
2015,08,09,03,03,17.60
2015,08,09,03,04,17.60
2015,08,09,03,05,17.60
2015,08,09,03,06,17.60
2015,08,09,03,07,17.60
2015,08,09,03,08,17.60
2015,08,09,03,09,17.60
2015,08,09,03,10,17.60
2015,08,09,03,11,17.60
2015,08,09,03,12,17.60
2015,08,09,03,13,17.60
2015,08,09,03,14,17.60
2015,08,09,03,15,17.60
2015,08,09,03,16,17.60
2015,08,09,03,17,17.70
2015,08,09,03,18,17.70
2015,08,09,03,19,17.70
2015,08,09,03,20,17.70
2015,08,09,03,21,17.60
2015,08,09,03,22,17.60
2015,08,09,03,23,17.60
2015,08,09,03,24,17.60
2015,08,09,03,25,17.60
2015,08,09,03,26,17.60
2015,08,09,03,27,17.60
2015,08,09,03,28,17.70
2015,08,09,03,29,17.60
2015,08,09,03,30,17.70
2015,08,09,03,31,17.70
2015,08,09,03,32,17.70
2015,08,09,03,33,17.60
2015,08,09,03,34,17.70
2015,08,09,03,35,17.70
2015,08,09,03,36,17.70
2015,08,09,03,37,17.70
2015,08,09,03,38,17.70
2015,08,09,03,39,17.70
2015,08,09,03,40,17.70
2015,08,09,03,41,17.70
2015,08,09,03,42,17.70
2015,08,09,03,43,17.70
2015,08,09,03,44,17.70
2015,08,09,03,45,17.70
2015,08,09,03,46,17.70
2015,08,09,03,47,17.70
2015,08,09,03,48,17.70
2015,08,09,03,49,17.70
2015,08,09,03,50,17.80
2015,08,09,03,51,17.80
2015,08,09,03,52,17.80
2015,08,09,03,53,17.80
2015,08,09,03,54,17.80
2015,08,09,03,55,17.80
2015,08,09,03,56,17.80
2015,08,09,03,57,17.80
2015,08,09,03,58,17.80
2015,08,09,03,59,17.80
2015,08,09,04,00,17.80
2015,08,09,04,01,17.80
2015,08,09,04,02,17.80
2015,08,09,04,03,17.80
2015,08,09,04,04,17.80
2015,08,09,04,05,17.80
2015,08,09,04,06,17.80
2015,08,09,04,07,17.80
2015,08,09,04,08,17.80
2015,08,09,04,09,17.80
2015,08,09,04,10,17.80
2015,08,09,04,11,17.80
2015,08,09,04,12,17.80
2015,08,09,04,13,17.80
2015,08,09,04,14,17.80
2015,08,09,04,15,17.80
2015,08,09,04,16,17.80
2015,08,09,04,17,17.70
2015,08,09,04,18,17.70
2015,08,09,04,19,17.70
2015,08,09,04,20,17.70
2015,08,09,04,21,17.70
2015,08,09,04,22,17.70
2015,08,09,04,23,17.70
2015,08,09,04,24,17.70
2015,08,09,04,25,17.70
2015,08,09,04,26,17.70
2015,08,09,04,27,17.70
2015,08,09,04,28,17.70
2015,08,09,04,29,17.70
2015,08,09,04,30,17.70
2015,08,09,04,31,17.70
2015,08,09,04,32,17.70
2015,08,09,04,33,17.70
2015,08,09,04,34,17.70
2015,08,09,04,35,17.70
2015,08,09,04,36,17.70
2015,08,09,04,37,17.70
2015,08,09,04,38,17.70
2015,08,09,04,39,17.60
2015,08,09,04,40,17.60
2015,08,09,04,41,17.60
2015,08,09,04,42,17.60
2015,08,09,04,43,17.60
2015,08,09,04,44,17.60
2015,08,09,04,45,17.60
2015,08,09,04,46,17.60
2015,08,09,04,47,17.60
2015,08,09,04,48,17.60
2015,08,09,04,49,17.60
2015,08,09,04,50,17.60
2015,08,09,04,51,17.60
2015,08,09,04,52,17.60
2015,08,09,04,53,17.60
2015,08,09,04,54,17.60
2015,08,09,04,55,17.60
2015,08,09,04,56,17.50
2015,08,09,04,57,17.50
2015,08,09,04,58,17.50
2015,08,09,04,59,17.50
2015,08,09,05,00,17.50
2015,08,09,05,01,17.50
2015,08,09,05,02,17.50
2015,08,09,05,03,17.40
2015,08,09,05,04,17.40
2015,08,09,05,05,17.40
2015,08,09,05,06,17.40
2015,08,09,05,07,17.40
2015,08,09,05,08,17.40
2015,08,09,05,09,17.40
2015,08,09,05,10,17.40
2015,08,09,05,11,17.40
2015,08,09,05,12,17.40
2015,08,09,05,13,17.30
2015,08,09,05,14,17.30
2015,08,09,05,15,17.30
2015,08,09,05,16,17.30
2015,08,09,05,17,17.30
2015,08,09,05,18,17.30
2015,08,09,05,19,17.30
2015,08,09,05,20,17.30
2015,08,09,05,21,17.30
2015,08,09,05,22,17.30
2015,08,09,05,23,17.30
2015,08,09,05,24,17.30
2015,08,09,05,25,17.30
2015,08,09,05,26,17.30
2015,08,09,05,27,17.30
2015,08,09,05,28,17.30
2015,08,09,05,29,17.30
2015,08,09,05,30,17.30
2015,08,09,05,31,17.30
2015,08,09,05,32,17.30
2015,08,09,05,33,17.30
2015,08,09,05,34,17.30
2015,08,09,05,35,17.30
2015,08,09,05,36,17.30
2015,08,09,05,37,17.30
2015,08,09,05,38,17.30
2015,08,09,05,39,17.30
2015,08,09,05,40,17.30
2015,08,09,05,41,17.30
2015,08,09,05,42,17.30
2015,08,09,05,43,17.30
2015,08,09,05,44,17.30
2015,08,09,05,45,17.30
2015,08,09,05,46,17.30
2015,08,09,05,47,17.30
2015,08,09,05,48,17.30
2015,08,09,05,49,17.30
2015,08,09,05,50,17.30
2015,08,09,05,51,17.30
2015,08,09,05,52,17.30
2015,08,09,05,53,17.30
2015,08,09,05,54,17.30
2015,08,09,05,55,17.30
2015,08,09,05,56,17.30
2015,08,09,05,57,17.30
2015,08,09,05,58,17.30
2015,08,09,05,59,17.30
2015,08,09,06,00,17.30
2015,08,09,06,01,17.30
2015,08,09,06,02,17.30
2015,08,09,06,03,17.30
2015,08,09,06,04,17.30
2015,08,09,06,05,17.30
2015,08,09,06,06,17.30
2015,08,09,06,07,17.30
2015,08,09,06,08,17.30
2015,08,09,06,09,17.30
2015,08,09,06,10,17.30
2015,08,09,06,11,17.30
2015,08,09,06,12,17.30
2015,08,09,06,13,17.30
2015,08,09,06,14,17.30
2015,08,09,06,15,17.30
2015,08,09,06,16,17.30
2015,08,09,06,17,17.30
2015,08,09,06,18,17.30
2015,08,09,06,19,17.30
2015,08,09,06,20,17.30
2015,08,09,06,21,17.30
2015,08,09,06,22,17.30
2015,08,09,06,23,17.30
2015,08,09,06,24,17.20
2015,08,09,06,25,17.20
2015,08,09,06,26,17.20
2015,08,09,06,27,17.20
2015,08,09,06,28,17.20
2015,08,09,06,29,17.20
2015,08,09,06,30,17.20
2015,08,09,06,31,17.20
2015,08,09,06,32,17.20
2015,08,09,06,33,17.20
2015,08,09,06,34,17.20
2015,08,09,06,35,17.20
2015,08,09,06,36,17.20
2015,08,09,06,37,17.20
2015,08,09,06,38,17.10
2015,08,09,06,39,17.10
2015,08,09,06,40,17.10
2015,08,09,06,41,17.10
2015,08,09,06,42,17.10
2015,08,09,06,43,17.10
2015,08,09,06,44,17.10
2015,08,09,06,45,17.10
2015,08,09,06,46,17.10
2015,08,09,06,47,17.10
2015,08,09,06,48,17.10
2015,08,09,06,49,17.10
2015,08,09,06,50,17.10
2015,08,09,06,51,17.10
2015,08,09,06,52,17.10
2015,08,09,06,53,17.10
2015,08,09,06,54,17.10
2015,08,09,06,55,17.10
2015,08,09,06,56,17.10
2015,08,09,06,57,17.10
2015,08,09,06,58,17.10
2015,08,09,06,59,17.10
2015,08,09,07,00,17.10
2015,08,09,07,01,17.10
2015,08,09,07,02,17.10
2015,08,09,07,03,17.10
2015,08,09,07,04,17.00
2015,08,09,07,05,17.10
2015,08,09,07,06,17.10
2015,08,09,07,07,17.10
2015,08,09,07,08,17.10
2015,08,09,07,09,17.10
2015,08,09,07,10,17.10
2015,08,09,07,11,17.00
2015,08,09,07,12,17.00
2015,08,09,07,13,17.00
2015,08,09,07,14,16.90
2015,08,09,07,15,16.90
2015,08,09,07,16,16.90
2015,08,09,07,17,16.80
2015,08,09,07,18,16.70
2015,08,09,07,19,16.60
2015,08,09,07,20,16.60
2015,08,09,07,21,16.50
2015,08,09,07,22,16.40
2015,08,09,07,23,16.40
2015,08,09,07,24,16.30
2015,08,09,07,25,16.30
2015,08,09,07,26,16.20
2015,08,09,07,27,16.20
2015,08,09,07,28,16.10
2015,08,09,07,29,16.10
2015,08,09,07,30,16.10
2015,08,09,07,31,16.00
2015,08,09,07,32,16.00
2015,08,09,07,33,15.90
2015,08,09,07,34,15.90
2015,08,09,07,35,15.80
2015,08,09,07,36,15.80
2015,08,09,07,37,15.80
2015,08,09,07,38,15.70
2015,08,09,07,39,15.70
2015,08,09,07,40,15.70
2015,08,09,07,41,15.70
2015,08,09,07,42,15.70
2015,08,09,07,43,15.70
2015,08,09,07,44,15.60
2015,08,09,07,45,15.60
2015,08,09,07,46,15.60
2015,08,09,07,47,15.50
2015,08,09,07,48,15.50
2015,08,09,07,49,15.40
2015,08,09,07,50,15.40
2015,08,09,07,51,15.40
2015,08,09,07,52,15.40
2015,08,09,07,53,15.40
2015,08,09,07,54,15.30
2015,08,09,07,55,15.30
2015,08,09,07,56,15.30
2015,08,09,07,57,15.30
2015,08,09,07,58,15.30
2015,08,09,07,59,15.30
2015,08,09,08,00,15.30
2015,08,09,08,01,15.30
2015,08,09,08,02,15.30
2015,08,09,08,03,15.30
2015,08,09,08,04,15.40
2015,08,09,08,05,15.40
2015,08,09,08,06,15.40
2015,08,09,08,07,15.50
2015,08,09,08,08,15.50
2015,08,09,08,09,15.50
2015,08,09,08,10,15.60
2015,08,09,08,11,15.60
2015,08,09,08,12,15.60
2015,08,09,08,13,15.60
2015,08,09,08,14,15.70
2015,08,09,08,15,15.70
2015,08,09,08,16,15.70
2015,08,09,08,17,15.80
2015,08,09,08,18,15.80
2015,08,09,08,19,15.80
2015,08,09,08,20,15.80
2015,08,09,08,21,15.90
2015,08,09,08,22,15.90
2015,08,09,08,23,15.90
2015,08,09,08,24,15.90
2015,08,09,08,25,15.90
2015,08,09,08,26,15.90
2015,08,09,08,27,16.00
2015,08,09,08,28,16.00
2015,08,09,08,29,16.10
2015,08,09,08,30,16.10
2015,08,09,08,31,16.10
2015,08,09,08,32,16.10
2015,08,09,08,33,16.10
2015,08,09,08,34,16.10
2015,08,09,08,35,16.20
2015,08,09,08,36,16.20
2015,08,09,08,37,16.20
2015,08,09,08,38,16.20
2015,08,09,08,39,16.20
2015,08,09,08,40,16.30
2015,08,09,08,41,16.30
2015,08,09,08,42,16.30
2015,08,09,08,43,16.40
2015,08,09,08,44,16.40
2015,08,09,08,45,16.40
2015,08,09,08,46,16.40
2015,08,09,08,47,16.50
2015,08,09,08,48,16.50
2015,08,09,08,49,16.50
2015,08,09,08,50,16.60
2015,08,09,08,51,16.60
2015,08,09,08,52,16.60
2015,08,09,08,53,16.60
2015,08,09,08,54,16.60
2015,08,09,08,55,16.60
2015,08,09,08,56,16.70
2015,08,09,08,57,16.70
2015,08,09,08,58,16.70
2015,08,09,08,59,16.70
2015,08,09,09,00,16.70
2015,08,09,09,01,16.60
2015,08,09,09,02,16.60
2015,08,09,09,03,16.60
2015,08,09,09,04,16.60
2015,08,09,09,05,16.60
2015,08,09,09,06,16.60
2015,08,09,09,07,16.60
2015,08,09,09,08,16.60
2015,08,09,09,09,16.60
2015,08,09,09,10,16.60
2015,08,09,09,11,16.60
2015,08,09,09,12,16.60
2015,08,09,09,13,16.60
2015,08,09,09,14,16.60
2015,08,09,09,15,16.70
2015,08,09,09,16,16.70
2015,08,09,09,17,16.70
2015,08,09,09,18,16.70
2015,08,09,09,19,16.70
2015,08,09,09,20,16.70
2015,08,09,09,21,16.70
2015,08,09,09,22,16.70
2015,08,09,09,23,16.80
2015,08,09,09,24,16.80
2015,08,09,09,25,16.80
2015,08,09,09,26,16.80
2015,08,09,09,27,16.90
2015,08,09,09,28,16.90
2015,08,09,09,29,16.90
2015,08,09,09,30,17.00
2015,08,09,09,31,17.00
2015,08,09,09,32,17.00
2015,08,09,09,33,17.10
2015,08,09,09,34,17.10
2015,08,09,09,35,17.10
2015,08,09,09,36,17.10
2015,08,09,09,37,17.20
2015,08,09,09,38,17.20
2015,08,09,09,39,17.30
2015,08,09,09,40,17.30
2015,08,09,09,41,17.40
2015,08,09,09,42,17.40
2015,08,09,09,43,17.40
2015,08,09,09,44,17.50
2015,08,09,09,45,17.50
2015,08,09,09,46,17.60
2015,08,09,09,47,17.60
2015,08,09,09,48,17.60
2015,08,09,09,49,17.60
2015,08,09,09,50,17.70
2015,08,09,09,51,17.70
2015,08,09,09,52,17.70
2015,08,09,09,53,17.70
2015,08,09,09,54,17.70
2015,08,09,09,55,17.70
2015,08,09,09,56,17.70
2015,08,09,09,57,17.70
2015,08,09,09,58,17.70
2015,08,09,09,59,17.70
2015,08,09,10,00,17.60
2015,08,09,10,01,17.60
2015,08,09,10,02,17.60
2015,08,09,10,03,17.60
2015,08,09,10,04,17.70
2015,08,09,10,05,17.70
2015,08,09,10,06,17.70
2015,08,09,10,07,17.70
2015,08,09,10,08,17.70
2015,08,09,10,09,17.70
2015,08,09,10,10,17.70
2015,08,09,10,11,17.80
2015,08,09,10,12,17.80
2015,08,09,10,13,17.80
2015,08,09,10,14,17.80
2015,08,09,10,15,17.80
2015,08,09,10,16,17.80
2015,08,09,10,17,17.90
2015,08,09,10,18,17.90
2015,08,09,10,19,17.90
2015,08,09,10,20,18.00
2015,08,09,10,21,18.00
2015,08,09,10,22,18.10
2015,08,09,10,23,18.10
2015,08,09,10,24,18.10
2015,08,09,10,25,18.10
2015,08,09,10,26,18.20
2015,08,09,10,27,18.20
2015,08,09,10,28,18.20
2015,08,09,10,29,18.20
2015,08,09,10,30,18.30
2015,08,09,10,31,18.30
2015,08,09,10,32,18.40
2015,08,09,10,33,18.50
2015,08,09,10,34,18.60
2015,08,09,10,35,18.60
2015,08,09,10,36,18.70
2015,08,09,10,37,18.70
2015,08,09,10,38,18.70
2015,08,09,10,39,18.70
2015,08,09,10,40,18.60
2015,08,09,10,41,18.60
2015,08,09,10,42,18.60
2015,08,09,10,43,18.60
2015,08,09,10,44,18.60
2015,08,09,10,45,18.70
2015,08,09,10,46,18.70
2015,08,09,10,47,18.60
2015,08,09,10,48,18.70
2015,08,09,10,49,18.60
2015,08,09,10,50,18.70
2015,08,09,10,51,18.70
2015,08,09,10,52,18.70
2015,08,09,10,53,18.80
2015,08,09,10,54,18.80
2015,08,09,10,55,18.80
2015,08,09,10,56,18.80
2015,08,09,10,57,18.80
2015,08,09,10,58,18.80
2015,08,09,10,59,18.80
2015,08,09,11,00,18.80
2015,08,09,11,01,18.80
2015,08,09,11,02,18.80
2015,08,09,11,03,18.80
2015,08,09,11,04,18.90
2015,08,09,11,05,18.90
2015,08,09,11,06,19.00
2015,08,09,11,07,19.10
2015,08,09,11,08,19.20
2015,08,09,11,09,19.30
2015,08,09,11,10,19.40
2015,08,09,11,11,19.40
2015,08,09,11,12,19.50
2015,08,09,11,13,19.50
2015,08,09,11,14,19.60
2015,08,09,11,15,19.60
2015,08,09,11,16,19.70
2015,08,09,11,17,19.70
2015,08,09,11,18,19.80
2015,08,09,11,19,19.80
2015,08,09,11,20,19.80
2015,08,09,11,21,19.80
2015,08,09,11,22,19.80
2015,08,09,11,23,19.90
2015,08,09,11,24,19.90
2015,08,09,11,25,19.90
2015,08,09,11,26,19.90
2015,08,09,11,27,20.00
2015,08,09,11,28,20.10
2015,08,09,11,29,20.10
2015,08,09,11,30,20.20
2015,08,09,11,31,20.20
2015,08,09,11,32,20.30
2015,08,09,11,33,20.40
2015,08,09,11,34,20.40
2015,08,09,11,35,20.50
2015,08,09,11,36,20.60
2015,08,09,11,37,20.60
2015,08,09,11,38,20.60
2015,08,09,11,39,20.70
2015,08,09,11,40,20.70
2015,08,09,11,41,20.70
2015,08,09,11,42,20.70
2015,08,09,11,43,20.80
2015,08,09,11,44,20.80
2015,08,09,11,45,20.80
2015,08,09,11,46,20.80
2015,08,09,11,47,20.80
2015,08,09,11,48,20.90
2015,08,09,11,49,20.90
2015,08,09,11,50,21.00
2015,08,09,11,51,21.00
2015,08,09,11,52,21.10
2015,08,09,11,53,21.20
2015,08,09,11,54,21.20
2015,08,09,11,55,21.20
2015,08,09,11,56,21.10
2015,08,09,11,57,21.10
2015,08,09,11,58,21.10
2015,08,09,11,59,21.10
2015,08,09,12,00,21.00
2015,08,09,12,01,21.00
2015,08,09,12,02,21.00
2015,08,09,12,03,21.10
2015,08,09,12,04,21.30
2015,08,09,12,05,21.40
2015,08,09,12,06,21.50
2015,08,09,12,07,21.70
2015,08,09,12,08,21.80
2015,08,09,12,09,22.00
2015,08,09,12,10,22.20
2015,08,09,12,11,22.30
2015,08,09,12,12,22.30
2015,08,09,12,13,22.30
2015,08,09,12,14,22.30
2015,08,09,12,15,22.30
2015,08,09,12,16,22.30
2015,08,09,12,17,22.30
2015,08,09,12,18,22.30
2015,08,09,12,19,22.30
2015,08,09,12,20,22.20
2015,08,09,12,21,22.20
2015,08,09,12,22,22.10
2015,08,09,12,23,22.10
2015,08,09,12,24,22.10
2015,08,09,12,25,22.10
2015,08,09,12,26,22.10
2015,08,09,12,27,22.20
2015,08,09,12,28,22.20
2015,08,09,12,29,22.30
2015,08,09,12,30,22.20
2015,08,09,12,31,22.10
2015,08,09,12,32,22.00
2015,08,09,12,33,21.80
2015,08,09,12,34,21.80
2015,08,09,12,35,21.70
2015,08,09,12,36,21.70
2015,08,09,12,37,21.70
2015,08,09,12,38,21.70
2015,08,09,12,39,21.70
2015,08,09,12,40,21.70
2015,08,09,12,41,21.80
2015,08,09,12,42,21.80
2015,08,09,12,43,21.90
2015,08,09,12,44,21.90
2015,08,09,12,45,22.00
2015,08,09,12,46,22.10
2015,08,09,12,47,22.10
2015,08,09,12,48,22.10
2015,08,09,12,49,22.00
2015,08,09,12,50,21.90
2015,08,09,12,51,21.80
2015,08,09,12,52,21.70
2015,08,09,12,53,21.70
2015,08,09,12,54,21.60
2015,08,09,12,55,21.50
2015,08,09,12,56,21.60
2015,08,09,12,57,21.60
2015,08,09,12,58,21.70
2015,08,09,12,59,21.70
2015,08,09,13,00,21.70
2015,08,09,13,01,21.70
2015,08,09,13,02,21.70
2015,08,09,13,03,21.60
2015,08,09,13,04,21.60
2015,08,09,13,05,21.60
2015,08,09,13,06,21.60
2015,08,09,13,07,21.50
2015,08,09,13,08,21.40
2015,08,09,13,09,21.30
2015,08,09,13,10,21.20
2015,08,09,13,11,21.20
2015,08,09,13,12,21.20
2015,08,09,13,13,21.10
2015,08,09,13,14,21.00
2015,08,09,13,15,20.90
2015,08,09,13,16,20.80
2015,08,09,13,17,20.80
2015,08,09,13,18,20.80
2015,08,09,13,19,20.80
2015,08,09,13,20,20.80
2015,08,09,13,21,20.90
2015,08,09,13,22,21.00
2015,08,09,13,23,21.10
2015,08,09,13,24,21.10
2015,08,09,13,25,21.10
2015,08,09,13,26,21.10
2015,08,09,13,27,21.10
2015,08,09,13,28,21.20
2015,08,09,13,29,21.30
2015,08,09,13,30,21.50
2015,08,09,13,31,21.50
2015,08,09,13,32,21.40
2015,08,09,13,33,21.50
2015,08,09,13,34,21.50
2015,08,09,13,35,21.60
2015,08,09,13,36,21.70
2015,08,09,13,37,21.80
2015,08,09,13,38,21.80
2015,08,09,13,39,21.90
2015,08,09,13,40,21.90
2015,08,09,13,41,21.90
2015,08,09,13,42,21.80
2015,08,09,13,43,21.70
2015,08,09,13,44,21.70
2015,08,09,13,45,21.70
2015,08,09,13,46,21.70
2015,08,09,13,47,21.80
2015,08,09,13,48,21.80
2015,08,09,13,49,21.90
2015,08,09,13,50,21.90
2015,08,09,13,51,21.90
2015,08,09,13,52,21.90
2015,08,09,13,53,21.90
2015,08,09,13,54,21.80
2015,08,09,13,55,21.80
2015,08,09,13,56,21.80
2015,08,09,13,57,21.80
2015,08,09,13,58,21.80
2015,08,09,13,59,21.80
2015,08,09,14,00,21.90
2015,08,09,14,01,22.00
2015,08,09,14,02,22.10
2015,08,09,14,03,22.20
2015,08,09,14,04,22.20
2015,08,09,14,05,22.20
2015,08,09,14,06,22.20
2015,08,09,14,07,22.20
2015,08,09,14,08,22.30
2015,08,09,14,09,22.40
2015,08,09,14,10,22.50
2015,08,09,14,11,22.60
2015,08,09,14,12,22.60
2015,08,09,14,13,22.60
2015,08,09,14,14,22.60
2015,08,09,14,15,22.60
2015,08,09,14,16,22.60
2015,08,09,14,17,22.60
2015,08,09,14,18,22.70
2015,08,09,14,19,22.80
2015,08,09,14,20,22.90
2015,08,09,14,21,22.90
2015,08,09,14,22,22.90
2015,08,09,14,23,22.90
2015,08,09,14,24,22.90
2015,08,09,14,25,23.00
2015,08,09,14,26,23.00
2015,08,09,14,27,23.10
2015,08,09,14,28,23.10
2015,08,09,14,29,23.10
2015,08,09,14,30,23.10
2015,08,09,14,31,23.10
2015,08,09,14,32,23.10
2015,08,09,14,33,23.10
2015,08,09,14,34,23.10
2015,08,09,14,35,23.10
2015,08,09,14,36,23.00
2015,08,09,14,37,23.00
2015,08,09,14,38,22.90
2015,08,09,14,39,22.90
2015,08,09,14,40,22.80
2015,08,09,14,41,22.70
2015,08,09,14,42,22.60
2015,08,09,14,43,22.60
2015,08,09,14,44,22.60
2015,08,09,14,45,22.70
2015,08,09,14,46,22.80
2015,08,09,14,47,22.90
2015,08,09,14,48,22.90
2015,08,09,14,49,22.90
2015,08,09,14,50,22.80
2015,08,09,14,51,22.90
2015,08,09,14,52,22.90
2015,08,09,14,53,23.00
2015,08,09,14,54,23.00
2015,08,09,14,55,23.00
2015,08,09,14,56,23.10
2015,08,09,14,57,23.10
2015,08,09,14,58,23.10
2015,08,09,14,59,23.00
2015,08,09,15,00,23.00
2015,08,09,15,01,23.00
2015,08,09,15,02,23.00
2015,08,09,15,03,22.90
2015,08,09,15,04,22.90
2015,08,09,15,05,22.90
2015,08,09,15,06,22.90
2015,08,09,15,07,22.90
2015,08,09,15,08,22.90
2015,08,09,15,09,22.90
2015,08,09,15,10,22.90
2015,08,09,15,11,22.80
2015,08,09,15,12,22.80
2015,08,09,15,13,22.80
2015,08,09,15,14,22.80
2015,08,09,15,15,22.70
2015,08,09,15,16,22.60
2015,08,09,15,17,22.60
2015,08,09,15,18,22.60
2015,08,09,15,19,22.60
2015,08,09,15,20,22.60
2015,08,09,15,21,22.60
2015,08,09,15,22,22.60
2015,08,09,15,23,22.60
2015,08,09,15,24,22.60
2015,08,09,15,25,22.60
2015,08,09,15,26,22.60
2015,08,09,15,27,22.60
2015,08,09,15,28,22.60
2015,08,09,15,29,22.60
2015,08,09,15,30,22.50
2015,08,09,15,31,22.50
2015,08,09,15,32,22.50
2015,08,09,15,33,22.40
2015,08,09,15,34,22.40
2015,08,09,15,35,22.40
2015,08,09,15,36,22.40
2015,08,09,15,37,22.40
2015,08,09,15,38,22.40
2015,08,09,15,39,22.40
2015,08,09,15,40,22.40
2015,08,09,15,41,22.40
2015,08,09,15,42,22.40
2015,08,09,15,43,22.40
2015,08,09,15,44,22.30
2015,08,09,15,45,22.30
2015,08,09,15,46,22.30
2015,08,09,15,47,22.30
2015,08,09,15,48,22.30
2015,08,09,15,49,22.30
2015,08,09,15,50,22.40
2015,08,09,15,51,22.40
2015,08,09,15,52,22.40
2015,08,09,15,53,22.40
2015,08,09,15,54,22.50
2015,08,09,15,55,22.60
2015,08,09,15,56,22.70
2015,08,09,15,57,22.80
2015,08,09,15,58,22.90
2015,08,09,15,59,23.00
2015,08,09,16,00,23.10
2015,08,09,16,01,23.10
2015,08,09,16,02,23.20
2015,08,09,16,03,23.30
2015,08,09,16,04,23.30
2015,08,09,16,05,23.30
2015,08,09,16,06,23.30
2015,08,09,16,07,23.40
2015,08,09,16,08,23.40
2015,08,09,16,09,23.40
2015,08,09,16,10,23.40
2015,08,09,16,11,23.30
2015,08,09,16,12,23.20
2015,08,09,16,13,23.10
2015,08,09,16,14,23.00
2015,08,09,16,15,22.90
2015,08,09,16,16,22.90
2015,08,09,16,17,22.90
2015,08,09,16,18,22.90
2015,08,09,16,19,22.90
2015,08,09,16,20,22.90
2015,08,09,16,21,22.80
2015,08,09,16,22,22.80
2015,08,09,16,23,22.80
2015,08,09,16,24,22.70
2015,08,09,16,25,22.70
2015,08,09,16,26,22.70
2015,08,09,16,27,22.60
2015,08,09,16,28,22.60
2015,08,09,16,29,22.60
2015,08,09,16,30,22.60
2015,08,09,16,31,22.70
2015,08,09,16,32,22.70
2015,08,09,16,33,22.70
2015,08,09,16,34,22.70
2015,08,09,16,35,22.70
2015,08,09,16,36,22.70
2015,08,09,16,37,22.70
2015,08,09,16,38,22.70
2015,08,09,16,39,22.80
2015,08,09,16,40,22.80
2015,08,09,16,41,22.90
2015,08,09,16,42,22.90
2015,08,09,16,43,22.90
2015,08,09,16,44,22.90
2015,08,09,16,45,22.90
2015,08,09,16,46,23.00
2015,08,09,16,47,23.00
2015,08,09,16,48,23.00
2015,08,09,16,49,23.00
2015,08,09,16,50,23.10
2015,08,09,16,51,23.10
2015,08,09,16,52,23.10
2015,08,09,16,53,23.20
2015,08,09,16,54,23.20
2015,08,09,16,55,23.30
2015,08,09,16,56,23.30
2015,08,09,16,57,23.40
2015,08,09,16,58,23.40
2015,08,09,16,59,23.50
2015,08,09,17,00,23.60
2015,08,09,17,01,23.60
2015,08,09,17,02,23.60
2015,08,09,17,03,23.70
2015,08,09,17,04,23.70
2015,08,09,17,05,23.70
2015,08,09,17,06,23.80
2015,08,09,17,07,23.80
2015,08,09,17,08,23.80
2015,08,09,17,09,23.80
2015,08,09,17,10,23.80
2015,08,09,17,11,23.70
2015,08,09,17,12,23.70
2015,08,09,17,13,23.60
2015,08,09,17,14,23.60
2015,08,09,17,15,23.60
2015,08,09,17,16,23.70
2015,08,09,17,17,23.70
2015,08,09,17,18,23.70
2015,08,09,17,19,23.70